Datum;Uhrzeit;Doro;Brinck
01.01.2020;01:00;40;39
01.01.2020;02:00;40;35
01.01.2020;03:00;36;38
01.01.2020;04:00;29;35
01.01.2020;05:00;24;34
01.01.2020;06:00;24;31
01.01.2020;07:00;21;38
01.01.2020;08:00;19;32
01.01.2020;09:00;22;23
01.01.2020;10:00;18;20
01.01.2020;11:00;15;14
01.01.2020;12:00;;14
01.01.2020;13:00;16;17
01.01.2020;14:00;20;17
01.01.2020;15:00;23;19
01.01.2020;16:00;26;25
01.01.2020;17:00;33;33
01.01.2020;18:00;47;39
01.01.2020;19:00;47;51
01.01.2020;20:00;49;46
01.01.2020;21:00;47;32
01.01.2020;22:00;43;33
01.01.2020;23:00;40;34
01.01.2020;24:00:00;30;35
02.01.2020;01:00;28;38
02.01.2020;02:00;34;39
02.01.2020;03:00;35;37
02.01.2020;04:00;33;33
02.01.2020;05:00;29;28
02.01.2020;06:00;27;18
02.01.2020;07:00;31;20
02.01.2020;08:00;31;25
02.01.2020;09:00;34;31
02.01.2020;10:00;33;31
02.01.2020;11:00;39;28
02.01.2020;12:00;37;32
02.01.2020;13:00;;26
02.01.2020;14:00;40;29
02.01.2020;15:00;42;34
02.01.2020;16:00;49;41
02.01.2020;17:00;48;42
02.01.2020;18:00;48;42
02.01.2020;19:00;49;42
02.01.2020;20:00;45;41
02.01.2020;21:00;42;38
02.01.2020;22:00;39;36
02.01.2020;23:00;39;32
02.01.2020;24:00:00;32;27
03.01.2020;01:00;29;25
03.01.2020;02:00;31;22
03.01.2020;03:00;27;22
03.01.2020;04:00;27;23
03.01.2020;05:00;28;18
03.01.2020;06:00;33;16
03.01.2020;07:00;40;31
03.01.2020;08:00;44;23
03.01.2020;09:00;48;30
03.01.2020;10:00;48;42
03.01.2020;11:00;39;20
03.01.2020;12:00;18;8
03.01.2020;13:00;;7
03.01.2020;14:00;;8
03.01.2020;15:00;18;9
03.01.2020;16:00;20;10
03.01.2020;17:00;24;11
03.01.2020;18:00;25;16
03.01.2020;19:00;25;20
03.01.2020;20:00;22;12
03.01.2020;21:00;19;11
03.01.2020;22:00;22;10
03.01.2020;23:00;21;17
03.01.2020;24:00:00;21;21
04.01.2020;01:00;21;28
04.01.2020;02:00;24;21
04.01.2020;03:00;25;15
04.01.2020;04:00;22;17
04.01.2020;05:00;21;12
04.01.2020;06:00;25;19
04.01.2020;07:00;27;22
04.01.2020;08:00;28;21
04.01.2020;09:00;26;20
04.01.2020;10:00;25;21
04.01.2020;11:00;25;20
04.01.2020;12:00;27;21
04.01.2020;13:00;27;21
04.01.2020;14:00;30;24
04.01.2020;15:00;;26
04.01.2020;16:00;32;28
04.01.2020;17:00;27;23
04.01.2020;18:00;26;18
04.01.2020;19:00;24;19
04.01.2020;20:00;23;18
04.01.2020;21:00;22;19
04.01.2020;22:00;20;18
04.01.2020;23:00;18;13
04.01.2020;24:00:00;18;13
05.01.2020;01:00;19;12
05.01.2020;02:00;17;12
05.01.2020;03:00;18;16
05.01.2020;04:00;18;14
05.01.2020;05:00;21;12
05.01.2020;06:00;23;17
05.01.2020;07:00;23;21
05.01.2020;08:00;27;20
05.01.2020;09:00;32;24
05.01.2020;10:00;31;27
05.01.2020;11:00;28;20
05.01.2020;12:00;27;19
05.01.2020;13:00;29;23
05.01.2020;14:00;29;24
05.01.2020;15:00;28;21
05.01.2020;16:00;;19
05.01.2020;17:00;32;22
05.01.2020;18:00;25;13
05.01.2020;19:00;32;19
05.01.2020;20:00;35;23
05.01.2020;21:00;34;17
05.01.2020;22:00;28;18
05.01.2020;23:00;33;22
05.01.2020;24:00:00;29;21
06.01.2020;01:00;25;26
06.01.2020;02:00;21;22
06.01.2020;03:00;22;25
06.01.2020;04:00;22;20
06.01.2020;05:00;30;23
06.01.2020;06:00;33;27
06.01.2020;07:00;54;43
06.01.2020;08:00;53;29
06.01.2020;09:00;52;21
06.01.2020;10:00;48;28
06.01.2020;11:00;39;25
06.01.2020;12:00;38;17
06.01.2020;13:00;39;20
06.01.2020;14:00;39;18
06.01.2020;15:00;47;19
06.01.2020;16:00;59;31
06.01.2020;17:00;;43
06.01.2020;18:00;55;38
06.01.2020;19:00;52;40
06.01.2020;20:00;50;36
06.01.2020;21:00;49;43
06.01.2020;22:00;53;46
06.01.2020;23:00;50;51
06.01.2020;24:00:00;48;50
07.01.2020;01:00;39;36
07.01.2020;02:00;32;27
07.01.2020;03:00;32;10
07.01.2020;04:00;36;28
07.01.2020;05:00;33;12
07.01.2020;06:00;34;17
07.01.2020;07:00;33;30
07.01.2020;08:00;37;42
07.01.2020;09:00;45;37
07.01.2020;10:00;40;36
07.01.2020;11:00;43;31
07.01.2020;12:00;35;25
07.01.2020;13:00;27;21
07.01.2020;14:00;30;24
07.01.2020;15:00;26;19
07.01.2020;16:00;41;28
07.01.2020;17:00;49;35
07.01.2020;18:00;;37
07.01.2020;19:00;62;46
07.01.2020;20:00;56;41
07.01.2020;21:00;28;23
07.01.2020;22:00;26;12
07.01.2020;23:00;30;10
07.01.2020;24:00:00;24;12
08.01.2020;01:00;38;15
08.01.2020;02:00;39;24
08.01.2020;03:00;31;20
08.01.2020;04:00;30;18
08.01.2020;05:00;39;19
08.01.2020;06:00;43;26
08.01.2020;07:00;56;40
08.01.2020;08:00;60;45
08.01.2020;09:00;61;51
08.01.2020;10:00;59;48
08.01.2020;11:00;56;43
08.01.2020;12:00;54;40
08.01.2020;13:00;51;36
08.01.2020;14:00;48;32
08.01.2020;15:00;46;33
08.01.2020;16:00;60;30
08.01.2020;17:00;30;24
08.01.2020;18:00;31;25
08.01.2020;19:00;;41
08.01.2020;20:00;37;34
08.01.2020;21:00;32;25
08.01.2020;22:00;35;25
08.01.2020;23:00;40;37
08.01.2020;24:00:00;39;36
09.01.2020;01:00;34;33
09.01.2020;02:00;33;32
09.01.2020;03:00;31;34
09.01.2020;04:00;32;32
09.01.2020;05:00;31;22
09.01.2020;06:00;34;26
09.01.2020;07:00;44;32
09.01.2020;08:00;40;33
09.01.2020;09:00;44;38
09.01.2020;10:00;46;36
09.01.2020;11:00;47;33
09.01.2020;12:00;46;34
09.01.2020;13:00;49;37
09.01.2020;14:00;52;41
09.01.2020;15:00;59;41
09.01.2020;16:00;65;53
09.01.2020;17:00;54;36
09.01.2020;18:00;51;38
09.01.2020;19:00;49;27
09.01.2020;20:00;;24
09.01.2020;21:00;26;13
09.01.2020;22:00;24;13
09.01.2020;23:00;27;10
09.01.2020;24:00:00;34;9
10.01.2020;01:00;22;12
10.01.2020;02:00;18;19
10.01.2020;03:00;15;12
10.01.2020;04:00;11;3
10.01.2020;05:00;10;2
10.01.2020;06:00;17;5
10.01.2020;07:00;53;33
10.01.2020;08:00;53;44
10.01.2020;09:00;62;44
10.01.2020;10:00;57;58
10.01.2020;11:00;49;53
10.01.2020;12:00;36;30
10.01.2020;13:00;33;30
10.01.2020;14:00;31;31
10.01.2020;15:00;32;31
10.01.2020;16:00;34;34
10.01.2020;17:00;28;25
10.01.2020;18:00;27;23
10.01.2020;19:00;31;27
10.01.2020;20:00;32;26
10.01.2020;21:00;;36
10.01.2020;22:00;38;34
10.01.2020;23:00;44;48
10.01.2020;24:00:00;47;47
11.01.2020;01:00;45;43
11.01.2020;02:00;47;37
11.01.2020;03:00;42;32
11.01.2020;04:00;40;32
11.01.2020;05:00;41;33
11.01.2020;06:00;42;34
11.01.2020;07:00;44;32
11.01.2020;08:00;46;41
11.01.2020;09:00;43;41
11.01.2020;10:00;45;33
11.01.2020;11:00;33;25
11.01.2020;12:00;33;21
11.01.2020;13:00;34;20
11.01.2020;14:00;34;23
11.01.2020;15:00;34;20
11.01.2020;16:00;34;20
11.01.2020;17:00;42;24
11.01.2020;18:00;43;18
11.01.2020;19:00;38;35
11.01.2020;20:00;32;32
11.01.2020;21:00;35;27
11.01.2020;22:00;;27
11.01.2020;23:00;35;21
11.01.2020;24:00:00;35;17
12.01.2020;01:00;33;23
12.01.2020;02:00;35;23
12.01.2020;03:00;42;29
12.01.2020;04:00;34;29
12.01.2020;05:00;33;32
12.01.2020;06:00;44;29
12.01.2020;07:00;37;30
12.01.2020;08:00;32;25
12.01.2020;09:00;34;24
12.01.2020;10:00;39;28
12.01.2020;11:00;39;24
12.01.2020;12:00;32;22
12.01.2020;13:00;33;18
12.01.2020;14:00;31;21
12.01.2020;15:00;33;19
12.01.2020;16:00;20;10
12.01.2020;17:00;22;9
12.01.2020;18:00;23;11
12.01.2020;19:00;23;10
12.01.2020;20:00;20;10
12.01.2020;21:00;16;6
12.01.2020;22:00;15;4
12.01.2020;23:00;;4
12.01.2020;24:00:00;14;4
13.01.2020;01:00;13;3
13.01.2020;02:00;12;2
13.01.2020;03:00;12;3
13.01.2020;04:00;13;8
13.01.2020;05:00;15;8
13.01.2020;06:00;36;18
13.01.2020;07:00;58;33
13.01.2020;08:00;59;51
13.01.2020;09:00;65;56
13.01.2020;10:00;74;55
13.01.2020;11:00;63;53
13.01.2020;12:00;60;50
13.01.2020;13:00;55;42
13.01.2020;14:00;50;22
13.01.2020;15:00;48;27
13.01.2020;16:00;36;28
13.01.2020;17:00;50;32
13.01.2020;18:00;56;26
13.01.2020;19:00;47;21
13.01.2020;20:00;45;28
13.01.2020;21:00;38;20
13.01.2020;22:00;40;19
13.01.2020;23:00;36;17
13.01.2020;24:00:00;;23
14.01.2020;01:00;31;13
14.01.2020;02:00;30;10
14.01.2020;03:00;20;5
14.01.2020;04:00;9;2
14.01.2020;05:00;15;2
14.01.2020;06:00;20;4
14.01.2020;07:00;37;14
14.01.2020;08:00;31;22
14.01.2020;09:00;36;23
14.01.2020;10:00;40;21
14.01.2020;11:00;44;30
14.01.2020;12:00;42;20
14.01.2020;13:00;31;30
14.01.2020;14:00;34;16
14.01.2020;15:00;37;17
14.01.2020;16:00;35;12
14.01.2020;17:00;33;10
14.01.2020;18:00;28;9
14.01.2020;19:00;25;11
14.01.2020;20:00;24;9
14.01.2020;21:00;21;14
14.01.2020;22:00;17;6
14.01.2020;23:00;16;11
14.01.2020;24:00:00;13;7
15.01.2020;01:00;;2
15.01.2020;02:00;10;3
15.01.2020;03:00;10;3
15.01.2020;04:00;9;2
15.01.2020;05:00;13;3
15.01.2020;06:00;20;6
15.01.2020;07:00;37;11
15.01.2020;08:00;40;23
15.01.2020;09:00;43;24
15.01.2020;10:00;41;24
15.01.2020;11:00;38;19
15.01.2020;12:00;38;22
15.01.2020;13:00;32;12
15.01.2020;14:00;34;14
15.01.2020;15:00;33;12
15.01.2020;16:00;34;20
15.01.2020;17:00;41;29
15.01.2020;18:00;41;29
15.01.2020;19:00;24;13
15.01.2020;20:00;18;6
15.01.2020;21:00;18;7
15.01.2020;22:00;22;13
15.01.2020;23:00;24;18
15.01.2020;24:00:00;23;12
16.01.2020;01:00;21;13
16.01.2020;02:00;;15
16.01.2020;03:00;30;40
16.01.2020;04:00;40;29
16.01.2020;05:00;39;25
16.01.2020;06:00;49;38
16.01.2020;07:00;75;41
16.01.2020;08:00;70;50
16.01.2020;09:00;76;53
16.01.2020;10:00;72;61
16.01.2020;11:00;66;49
16.01.2020;12:00;57;42
16.01.2020;13:00;51;37
16.01.2020;14:00;39;26
16.01.2020;15:00;35;17
16.01.2020;16:00;40;20
16.01.2020;17:00;;21
16.01.2020;18:00;56;31
16.01.2020;19:00;67;66
16.01.2020;20:00;52;43
16.01.2020;21:00;44;42
16.01.2020;22:00;33;28
16.01.2020;23:00;29;26
16.01.2020;24:00:00;27;26
17.01.2020;01:00;36;23
17.01.2020;02:00;33;35
17.01.2020;03:00;;37
17.01.2020;04:00;22;24
17.01.2020;05:00;22;25
17.01.2020;06:00;33;31
17.01.2020;07:00;54;40
17.01.2020;08:00;58;48
17.01.2020;09:00;59;52
17.01.2020;10:00;61;49
17.01.2020;11:00;65;41
17.01.2020;12:00;56;35
17.01.2020;13:00;57;42
17.01.2020;14:00;54;43
17.01.2020;15:00;59;44
17.01.2020;16:00;63;47
17.01.2020;17:00;46;33
17.01.2020;18:00;35;24
17.01.2020;19:00;35;26
17.01.2020;20:00;33;22
17.01.2020;21:00;26;16
17.01.2020;22:00;29;13
17.01.2020;23:00;23;13
17.01.2020;24:00:00;22;12
18.01.2020;01:00;21;10
18.01.2020;02:00;18;8
18.01.2020;03:00;17;9
18.01.2020;04:00;;6
18.01.2020;05:00;12;6
18.01.2020;06:00;18;9
18.01.2020;07:00;21;7
18.01.2020;08:00;22;15
18.01.2020;09:00;21;10
18.01.2020;10:00;21;11
18.01.2020;11:00;19;12
18.01.2020;12:00;19;12
18.01.2020;13:00;21;10
18.01.2020;14:00;27;20
18.01.2020;15:00;24;17
18.01.2020;16:00;25;19
18.01.2020;17:00;34;27
18.01.2020;18:00;35;31
18.01.2020;19:00;34;36
18.01.2020;20:00;31;30
18.01.2020;21:00;31;23
18.01.2020;22:00;21;22
18.01.2020;23:00;23;20
18.01.2020;24:00:00;29;27
19.01.2020;01:00;25;25
19.01.2020;02:00;27;26
19.01.2020;03:00;24;28
19.01.2020;04:00;26;26
19.01.2020;05:00;;28
19.01.2020;06:00;30;35
19.01.2020;07:00;28;41
19.01.2020;08:00;32;31
19.01.2020;09:00;40;34
19.01.2020;10:00;36;40
19.01.2020;11:00;38;33
19.01.2020;12:00;42;36
19.01.2020;13:00;39;38
19.01.2020;14:00;35;22
19.01.2020;15:00;36;21
19.01.2020;16:00;36;18
19.01.2020;17:00;51;19
19.01.2020;18:00;51;35
19.01.2020;19:00;58;37
19.01.2020;20:00;71;61
19.01.2020;21:00;68;60
19.01.2020;22:00;66;66
19.01.2020;23:00;66;60
19.01.2020;24:00:00;64;56
20.01.2020;01:00;58;53
20.01.2020;02:00;52;50
20.01.2020;03:00;52;50
20.01.2020;04:00;48;42
20.01.2020;05:00;47;40
20.01.2020;06:00;;40
20.01.2020;07:00;61;43
20.01.2020;08:00;68;53
20.01.2020;09:00;84;47
20.01.2020;10:00;68;54
20.01.2020;11:00;67;56
20.01.2020;12:00;66;56
20.01.2020;13:00;67;55
20.01.2020;14:00;68;56
20.01.2020;15:00;63;57
20.01.2020;16:00;64;61
20.01.2020;17:00;79;61
20.01.2020;18:00;71;61
20.01.2020;19:00;72;61
20.01.2020;20:00;68;60
20.01.2020;21:00;65;55
20.01.2020;22:00;63;49
20.01.2020;23:00;62;57
20.01.2020;24:00:00;52;52
21.01.2020;01:00;50;53
21.01.2020;02:00;45;52
21.01.2020;03:00;43;44
21.01.2020;04:00;41;42
21.01.2020;05:00;40;38
21.01.2020;06:00;46;42
21.01.2020;07:00;;40
21.01.2020;08:00;73;46
21.01.2020;09:00;85;50
21.01.2020;10:00;74;50
21.01.2020;11:00;71;50
21.01.2020;12:00;69;43
21.01.2020;13:00;67;45
21.01.2020;14:00;66;46
21.01.2020;15:00;67;54
21.01.2020;16:00;75;63
21.01.2020;17:00;72;68
21.01.2020;18:00;71;67
21.01.2020;19:00;75;67
21.01.2020;20:00;86;64
21.01.2020;21:00;74;64
21.01.2020;22:00;73;66
21.01.2020;23:00;74;63
21.01.2020;24:00:00;68;55
22.01.2020;01:00;61;58
22.01.2020;02:00;51;55
22.01.2020;03:00;54;58
22.01.2020;04:00;53;59
22.01.2020;05:00;56;56
22.01.2020;06:00;57;56
22.01.2020;07:00;61;55
22.01.2020;08:00;;53
22.01.2020;09:00;66;53
22.01.2020;10:00;62;51
22.01.2020;11:00;60;51
22.01.2020;12:00;58;51
22.01.2020;13:00;58;54
22.01.2020;14:00;63;51
22.01.2020;15:00;59;50
22.01.2020;16:00;67;52
22.01.2020;17:00;74;53
22.01.2020;18:00;71;54
22.01.2020;19:00;77;53
22.01.2020;20:00;73;58
22.01.2020;21:00;73;60
22.01.2020;22:00;71;68
22.01.2020;23:00;67;71
22.01.2020;24:00:00;63;68
23.01.2020;01:00;58;60
23.01.2020;02:00;54;58
23.01.2020;03:00;55;60
23.01.2020;04:00;53;57
23.01.2020;05:00;54;53
23.01.2020;06:00;56;50
23.01.2020;07:00;62;46
23.01.2020;08:00;64;47
23.01.2020;09:00;;48
23.01.2020;10:00;66;52
23.01.2020;11:00;64;43
23.01.2020;12:00;53;20
23.01.2020;13:00;46;31
23.01.2020;14:00;51;28
23.01.2020;15:00;47;32
23.01.2020;16:00;44;28
23.01.2020;17:00;55;32
23.01.2020;18:00;48;33
23.01.2020;19:00;42;32
23.01.2020;20:00;38;33
23.01.2020;21:00;34;34
23.01.2020;22:00;30;30
23.01.2020;23:00;28;23
23.01.2020;24:00:00;31;32
24.01.2020;01:00;34;35
24.01.2020;02:00;26;34
24.01.2020;03:00;22;33
24.01.2020;04:00;25;35
24.01.2020;05:00;32;35
24.01.2020;06:00;40;40
24.01.2020;07:00;42;38
24.01.2020;08:00;41;39
24.01.2020;09:00;41;38
24.01.2020;10:00;;40
24.01.2020;11:00;40;34
24.01.2020;12:00;40;33
24.01.2020;13:00;39;32
24.01.2020;14:00;41;35
24.01.2020;15:00;44;36
24.01.2020;16:00;48;39
24.01.2020;17:00;45;38
24.01.2020;18:00;43;40
24.01.2020;19:00;40;39
24.01.2020;20:00;43;41
24.01.2020;21:00;42;42
24.01.2020;22:00;41;42
24.01.2020;23:00;42;41
24.01.2020;24:00:00;39;40
25.01.2020;01:00;37;37
25.01.2020;02:00;37;37
25.01.2020;03:00;36;38
25.01.2020;04:00;36;38
25.01.2020;05:00;38;39
25.01.2020;06:00;37;39
25.01.2020;07:00;38;37
25.01.2020;08:00;33;33
25.01.2020;09:00;30;32
25.01.2020;10:00;38;35
25.01.2020;11:00;;32
25.01.2020;12:00;39;32
25.01.2020;13:00;39;31
25.01.2020;14:00;42;34
25.01.2020;15:00;44;37
25.01.2020;16:00;47;40
25.01.2020;17:00;47;42
25.01.2020;18:00;49;46
25.01.2020;19:00;52;49
25.01.2020;20:00;51;50
25.01.2020;21:00;47;46
25.01.2020;22:00;41;42
25.01.2020;23:00;36;35
25.01.2020;24:00:00;31;35
26.01.2020;01:00;30;35
26.01.2020;02:00;25;32
26.01.2020;03:00;22;29
26.01.2020;04:00;20;27
26.01.2020;05:00;19;28
26.01.2020;06:00;23;25
26.01.2020;07:00;24;25
26.01.2020;08:00;25;32
26.01.2020;09:00;26;31
26.01.2020;10:00;31;31
26.01.2020;11:00;33;26
26.01.2020;12:00;;25
26.01.2020;13:00;33;23
26.01.2020;14:00;36;26
26.01.2020;15:00;40;30
26.01.2020;16:00;44;37
26.01.2020;17:00;46;42
26.01.2020;18:00;48;48
26.01.2020;19:00;53;49
26.01.2020;20:00;53;52
26.01.2020;21:00;52;38
26.01.2020;22:00;44;24
26.01.2020;23:00;45;31
26.01.2020;24:00:00;41;35
27.01.2020;01:00;37;39
27.01.2020;02:00;35;38
27.01.2020;03:00;36;34
27.01.2020;04:00;41;32
27.01.2020;05:00;35;29
27.01.2020;06:00;44;31
27.01.2020;07:00;58;40
27.01.2020;08:00;64;52
27.01.2020;09:00;65;56
27.01.2020;10:00;59;36
27.01.2020;11:00;52;27
27.01.2020;12:00;45;27
27.01.2020;13:00;;20
27.01.2020;14:00;45;23
27.01.2020;15:00;48;32
27.01.2020;16:00;43;28
27.01.2020;17:00;39;21
27.01.2020;18:00;57;29
27.01.2020;19:00;61;45
27.01.2020;20:00;59;56
27.01.2020;21:00;54;50
27.01.2020;22:00;48;36
27.01.2020;23:00;36;19
27.01.2020;24:00:00;25;12
28.01.2020;01:00;22;14
28.01.2020;02:00;16;10
28.01.2020;03:00;12;4
28.01.2020;04:00;11;2
28.01.2020;05:00;15;5
28.01.2020;06:00;31;10
28.01.2020;07:00;55;15
28.01.2020;08:00;45;23
28.01.2020;09:00;39;23
28.01.2020;10:00;29;14
28.01.2020;11:00;24;12
28.01.2020;12:00;22;12
28.01.2020;13:00;20;13
28.01.2020;14:00;;12
28.01.2020;15:00;21;13
28.01.2020;16:00;25;18
28.01.2020;17:00;26;18
28.01.2020;18:00;29;27
28.01.2020;19:00;43;32
28.01.2020;20:00;26;17
28.01.2020;21:00;22;12
28.01.2020;22:00;16;6
28.01.2020;23:00;19;9
28.01.2020;24:00:00;18;9
29.01.2020;01:00;13;2
29.01.2020;02:00;13;2
29.01.2020;03:00;12;2
29.01.2020;04:00;13;5
29.01.2020;05:00;16;6
29.01.2020;06:00;18;8
29.01.2020;07:00;26;13
29.01.2020;08:00;30;21
29.01.2020;09:00;32;21
29.01.2020;10:00;32;22
29.01.2020;11:00;30;23
29.01.2020;12:00;27;21
29.01.2020;13:00;30;20
29.01.2020;14:00;33;21
29.01.2020;15:00;;24
29.01.2020;16:00;34;27
29.01.2020;17:00;38;31
29.01.2020;18:00;51;48
29.01.2020;19:00;49;33
29.01.2020;20:00;38;32
29.01.2020;21:00;44;46
29.01.2020;22:00;39;36
29.01.2020;23:00;37;27
29.01.2020;24:00:00;32;23
30.01.2020;01:00;19;8
30.01.2020;02:00;13;3
30.01.2020;03:00;12;2
30.01.2020;04:00;13;2
30.01.2020;05:00;14;3
30.01.2020;06:00;15;3
30.01.2020;07:00;25;11
30.01.2020;08:00;30;23
30.01.2020;09:00;45;42
30.01.2020;10:00;56;46
30.01.2020;11:00;56;39
30.01.2020;12:00;48;33
30.01.2020;13:00;36;21
30.01.2020;14:00;37;20
30.01.2020;15:00;42;19
30.01.2020;16:00;;28
30.01.2020;17:00;53;38
30.01.2020;18:00;;
30.01.2020;19:00;43;39
30.01.2020;20:00;43;45
30.01.2020;21:00;33;27
30.01.2020;22:00;33;24
30.01.2020;23:00;15;6
30.01.2020;24:00:00;15;5
31.01.2020;01:00;13;2
31.01.2020;02:00;12;2
31.01.2020;03:00;10;2
31.01.2020;04:00;9;3
31.01.2020;05:00;9;6
31.01.2020;06:00;15;4
31.01.2020;07:00;20;9
31.01.2020;08:00;22;17
31.01.2020;09:00;31;20
31.01.2020;10:00;35;24
31.01.2020;11:00;25;18
31.01.2020;12:00;20;14
31.01.2020;13:00;22;16
31.01.2020;14:00;21;14
31.01.2020;15:00;21;14
31.01.2020;16:00;26;14
31.01.2020;17:00;;14
31.01.2020;18:00;24;17
31.01.2020;19:00;24;14
31.01.2020;20:00;26;18
31.01.2020;21:00;26;15
31.01.2020;22:00;33;26
31.01.2020;23:00;42;48
31.01.2020;24:00:00;35;35
01.02.2020;01:00;22;9
01.02.2020;02:00;10;2
01.02.2020;03:00;8;2
01.02.2020;04:00;7;2
01.02.2020;05:00;12;4
01.02.2020;06:00;15;6
01.02.2020;07:00;23;16
01.02.2020;08:00;20;20
01.02.2020;09:00;23;18
01.02.2020;10:00;38;32
01.02.2020;11:00;37;39
01.02.2020;12:00;26;21
01.02.2020;13:00;23;17
01.02.2020;14:00;23;16
01.02.2020;15:00;20;14
01.02.2020;16:00;21;12
01.02.2020;17:00;19;9
01.02.2020;18:00;;9
01.02.2020;19:00;20;9
01.02.2020;20:00;17;7
01.02.2020;21:00;16;8
01.02.2020;22:00;17;7
01.02.2020;23:00;16;7
01.02.2020;24:00:00;17;5
02.02.2020;01:00;14;2
02.02.2020;02:00;13;2
02.02.2020;03:00;12;2
02.02.2020;04:00;10;2
02.02.2020;05:00;9;2
02.02.2020;06:00;10;2
02.02.2020;07:00;11;3
02.02.2020;08:00;15;6
02.02.2020;09:00;21;23
02.02.2020;10:00;30;38
02.02.2020;11:00;34;37
02.02.2020;12:00;32;30
02.02.2020;13:00;36;22
02.02.2020;14:00;38;27
02.02.2020;15:00;17;8
02.02.2020;16:00;21;6
02.02.2020;17:00;25;6
02.02.2020;18:00;19;7
02.02.2020;19:00;;6
02.02.2020;20:00;18;8
02.02.2020;21:00;17;9
02.02.2020;22:00;14;7
02.02.2020;23:00;15;6
02.02.2020;24:00:00;13;2
03.02.2020;01:00;11;2
03.02.2020;02:00;11;2
03.02.2020;03:00;11;2
03.02.2020;04:00;12;2
03.02.2020;05:00;11;2
03.02.2020;06:00;14;4
03.02.2020;07:00;20;13
03.02.2020;08:00;24;23
03.02.2020;09:00;29;23
03.02.2020;10:00;25;18
03.02.2020;11:00;26;18
03.02.2020;12:00;25;16
03.02.2020;13:00;25;17
03.02.2020;14:00;24;19
03.02.2020;15:00;32;24
03.02.2020;16:00;34;22
03.02.2020;17:00;29;20
03.02.2020;18:00;31;24
03.02.2020;19:00;40;38
03.02.2020;20:00;;20
03.02.2020;21:00;23;12
03.02.2020;22:00;24;19
03.02.2020;23:00;29;23
03.02.2020;24:00:00;20;13
04.02.2020;01:00;12;11
04.02.2020;02:00;9;8
04.02.2020;03:00;11;9
04.02.2020;04:00;13;9
04.02.2020;05:00;13;11
04.02.2020;06:00;19;15
04.02.2020;07:00;22;15
04.02.2020;08:00;28;23
04.02.2020;09:00;34;27
04.02.2020;10:00;33;26
04.02.2020;11:00;25;24
04.02.2020;12:00;31;27
04.02.2020;13:00;25;21
04.02.2020;14:00;30;20
04.02.2020;15:00;33;25
04.02.2020;16:00;32;23
04.02.2020;17:00;33;30
04.02.2020;18:00;35;31
04.02.2020;19:00;37;31
04.02.2020;20:00;50;41
04.02.2020;21:00;;48
04.02.2020;22:00;52;58
04.02.2020;23:00;52;60
04.02.2020;24:00:00;42;42
05.02.2020;01:00;31;32
05.02.2020;02:00;26;35
05.02.2020;03:00;26;35
05.02.2020;04:00;35;30
05.02.2020;05:00;30;32
05.02.2020;06:00;37;43
05.02.2020;07:00;57;47
05.02.2020;08:00;68;63
05.02.2020;09:00;72;65
05.02.2020;10:00;70;63
05.02.2020;11:00;62;56
05.02.2020;12:00;48;41
05.02.2020;13:00;33;22
05.02.2020;14:00;39;19
05.02.2020;15:00;39;22
05.02.2020;16:00;48;21
05.02.2020;17:00;35;21
05.02.2020;18:00;36;37
05.02.2020;19:00;53;55
05.02.2020;20:00;62;59
05.02.2020;21:00;58;66
05.02.2020;22:00;;53
05.02.2020;23:00;55;44
05.02.2020;24:00:00;54;38
06.02.2020;01:00;50;34
06.02.2020;02:00;41;36
06.02.2020;03:00;34;29
06.02.2020;04:00;45;35
06.02.2020;05:00;49;38
06.02.2020;06:00;52;44
06.02.2020;07:00;67;53
06.02.2020;08:00;69;50
06.02.2020;09:00;74;54
06.02.2020;10:00;61;50
06.02.2020;11:00;60;47
06.02.2020;12:00;59;51
06.02.2020;13:00;62;47
06.02.2020;14:00;60;44
06.02.2020;15:00;52;37
06.02.2020;16:00;47;28
06.02.2020;17:00;47;29
06.02.2020;18:00;45;40
06.02.2020;19:00;43;45
06.02.2020;20:00;45;46
06.02.2020;21:00;54;42
06.02.2020;22:00;72;54
06.02.2020;23:00;;61
06.02.2020;24:00:00;57;59
07.02.2020;01:00;56;59
07.02.2020;02:00;51;54
07.02.2020;03:00;46;49
07.02.2020;04:00;43;45
07.02.2020;05:00;46;41
07.02.2020;06:00;47;38
07.02.2020;07:00;58;44
07.02.2020;08:00;56;49
07.02.2020;09:00;58;48
07.02.2020;10:00;47;36
07.02.2020;11:00;37;27
07.02.2020;12:00;42;20
07.02.2020;13:00;35;19
07.02.2020;14:00;39;18
07.02.2020;15:00;39;23
07.02.2020;16:00;41;24
07.02.2020;17:00;45;28
07.02.2020;18:00;51;38
07.02.2020;19:00;45;51
07.02.2020;20:00;38;39
07.02.2020;21:00;33;33
07.02.2020;22:00;32;26
07.02.2020;23:00;29;19
07.02.2020;24:00:00;;20
08.02.2020;01:00;23;25
08.02.2020;02:00;21;31
08.02.2020;03:00;24;24
08.02.2020;04:00;24;29
08.02.2020;05:00;23;24
08.02.2020;06:00;27;29
08.02.2020;07:00;30;32
08.02.2020;08:00;29;33
08.02.2020;09:00;32;33
08.02.2020;10:00;36;31
08.02.2020;11:00;39;32
08.02.2020;12:00;43;34
08.02.2020;13:00;49;36
08.02.2020;14:00;48;33
08.02.2020;15:00;48;31
08.02.2020;16:00;51;35
08.02.2020;17:00;51;42
08.02.2020;18:00;59;54
08.02.2020;19:00;63;54
08.02.2020;20:00;59;56
08.02.2020;21:00;57;57
08.02.2020;22:00;52;50
08.02.2020;23:00;43;41
08.02.2020;24:00:00;34;29
09.02.2020;01:00;;37
09.02.2020;02:00;45;38
09.02.2020;03:00;40;41
09.02.2020;04:00;27;22
09.02.2020;05:00;27;20
09.02.2020;06:00;35;21
09.02.2020;07:00;35;21
09.02.2020;08:00;35;23
09.02.2020;09:00;34;24
09.02.2020;10:00;23;16
09.02.2020;11:00;17;13
09.02.2020;12:00;16;10
09.02.2020;13:00;17;8
09.02.2020;14:00;15;7
09.02.2020;15:00;14;2
09.02.2020;16:00;14;3
09.02.2020;17:00;14;6
09.02.2020;18:00;17;9
09.02.2020;19:00;14;5
09.02.2020;20:00;11;2
09.02.2020;21:00;11;2
09.02.2020;22:00;11;2
09.02.2020;23:00;13;4
09.02.2020;24:00:00;11;2
10.02.2020;01:00;12;2
10.02.2020;02:00;;2
10.02.2020;03:00;12;2
10.02.2020;04:00;10;2
10.02.2020;05:00;11;2
10.02.2020;06:00;12;2
10.02.2020;07:00;15;2
10.02.2020;08:00;16;7
10.02.2020;09:00;19;10
10.02.2020;10:00;23;11
10.02.2020;11:00;20;10
10.02.2020;12:00;16;9
10.02.2020;13:00;17;8
10.02.2020;14:00;17;8
10.02.2020;15:00;17;8
10.02.2020;16:00;18;7
10.02.2020;17:00;16;6
10.02.2020;18:00;20;8
10.02.2020;19:00;18;7
10.02.2020;20:00;14;4
10.02.2020;21:00;13;2
10.02.2020;22:00;12;2
10.02.2020;23:00;13;2
10.02.2020;24:00:00;9;2
11.02.2020;01:00;11;2
11.02.2020;02:00;11;2
11.02.2020;03:00;;2
11.02.2020;04:00;11;2
11.02.2020;05:00;9;2
11.02.2020;06:00;11;2
11.02.2020;07:00;16;7
11.02.2020;08:00;19;12
11.02.2020;09:00;22;16
11.02.2020;10:00;23;15
11.02.2020;11:00;18;12
11.02.2020;12:00;22;13
11.02.2020;13:00;17;9
11.02.2020;14:00;16;8
11.02.2020;15:00;18;10
11.02.2020;16:00;22;13
11.02.2020;17:00;27;16
11.02.2020;18:00;25;17
11.02.2020;19:00;24;15
11.02.2020;20:00;26;10